Hourly Weather Holodnoe

Today, 16 April, Friday

Time Temperature Precipitation Wind Pressure Humidity
00:00 +7°C° 0 mm 3 mps 738 mmHg 90%
01:00 +7°C° 0 mm 3 mps 738 mmHg 90%
02:00 +6°C° 0 mm 2 mps 738 mmHg 91%
03:00 +6°C° 0 mm 2 mps 738 mmHg 92%
04:00 +5°C° 0 mm 3 mps 738 mmHg 92%
05:00 +4°C° 0 mm 3 mps 738 mmHg 93%
06:00 +7°C° 0 mm 3 mps 739 mmHg 86%
07:00 +7°C° 0 mm 4 mps 739 mmHg 78%
08:00 +8°C° 0 mm 5 mps 739 mmHg 72%
09:00 +9°C° 0 mm 5 mps 739 mmHg 69%
10:00 +9°C° 0 mm 5 mps 739 mmHg 65%
11:00 +9°C° 0 mm 5 mps 739 mmHg 62%
12:00 +10°C° 0 mm 5 mps 740 mmHg 60%
13:00 +11°C° 0 mm 4 mps 740 mmHg 59%
14:00 +11°C° 0 mm 4 mps 740 mmHg 58%
15:00 +11°C° 0 mm 4 mps 740 mmHg 60%
16:00 +10°C° 0 mm 4 mps 740 mmHg 63%
17:00 +10°C° 0 mm 4 mps 740 mmHg 65%
18:00 +9°C° 0 mm 3 mps 740 mmHg 70%
19:00 +8°C° 0 mm 3 mps 740 mmHg 75%
20:00 +7°C° 0 mm 3 mps 740 mmHg 80%
21:00 +7°C° 0 mm 2 mps 740 mmHg 81%
22:00 +6°C° 0 mm 2 mps 740 mmHg 83%
23:00 +6°C° 0 mm 2 mps 740 mmHg 85%

Tomorrow, 17 April, Saturday

Time Temperature Precipitation Wind Pressure Humidity
00:00 +6°C° 0.1 mm 2 mps 740 mmHg 87%
01:00 +6°C° 0.1 mm 2 mps 740 mmHg 89%
02:00 +6°C° 0.1 mm 1 mps 740 mmHg 90%
03:00 +6°C° 0.1 mm 1 mps 740 mmHg 90%
04:00 +6°C° 0.1 mm 2 mps 740 mmHg 90%
05:00 +6°C° 0.1 mm 2 mps 740 mmHg 89%
06:00 +6°C° 0.1 mm 2 mps 740 mmHg 85%
07:00 +7°C° 0.1 mm 2 mps 740 mmHg 81%
08:00 +8°C° 0.1 mm 2 mps 741 mmHg 76%
09:00 +9°C° 0.3 mm 3 mps 741 mmHg 69%
10:00 +10°C° 0.3 mm 3 mps 741 mmHg 61%
11:00 +11°C° 0.3 mm 4 mps 741 mmHg 53%
12:00 +9°C° 0.1 mm 5 mps 741 mmHg 55%
13:00 +9°C° 0.1 mm 5 mps 741 mmHg 56%
14:00 +9°C° 0.1 mm 6 mps 741 mmHg 57%
15:00 +8°C° 0 mm 5 mps 741 mmHg 60%
16:00 +8°C° 0 mm 5 mps 741 mmHg 63%
17:00 +7°C° 0 mm 4 mps 741 mmHg 66%
18:00 +6°C° 0 mm 4 mps 742 mmHg 72%
19:00 +7°C° 0 mm 3 mps 742 mmHg 77%
20:00 +6°C° 0 mm 2 mps 742 mmHg 82%
21:00 +6°C° 0 mm 2 mps 742 mmHg 83%
22:00 +5°C° 0 mm 3 mps 742 mmHg 83%
23:00 +5°C° 0 mm 3 mps 742 mmHg 83%

Day after tomorrow, 18 April, Sunday

Time Temperature Precipitation Wind Pressure Humidity
00:00 +5°C° 0 mm 2 mps 742 mmHg 84%
01:00 +5°C° 0 mm 2 mps 742 mmHg 86%
02:00 +5°C° 0 mm 2 mps 742 mmHg 87%
03:00 +5°C° 0 mm 2 mps 742 mmHg 87%
04:00 +5°C° 0 mm 2 mps 742 mmHg 86%
05:00 +5°C° 0 mm 2 mps 742 mmHg 86%
06:00 +6°C° 0 mm 2 mps 742 mmHg 82%
07:00 +5°C° 0 mm 3 mps 742 mmHg 78%
08:00 +7°C° 0 mm 3 mps 742 mmHg 73%
09:00 +7°C° 0 mm 3 mps 742 mmHg 73%
10:00 +8°C° 0 mm 3 mps 742 mmHg 72%
11:00 +8°C° 0 mm 3 mps 742 mmHg 72%
12:00 +9°C° 0.1 mm 3 mps 742 mmHg 66%
13:00 +10°C° 0.1 mm 3 mps 742 mmHg 60%
14:00 +12°C° 0.1 mm 3 mps 742 mmHg 55%
15:00 +11°C° 0.1 mm 3 mps 741 mmHg 57%
16:00 +11°C° 0.1 mm 3 mps 741 mmHg 60%
17:00 +11°C° 0.1 mm 3 mps 741 mmHg 63%
18:00 +10°C° 0 mm 3 mps 741 mmHg 65%
19:00 +10°C° 0 mm 3 mps 741 mmHg 67%
20:00 +9°C° 0 mm 3 mps 742 mmHg 68%
21:00 +9°C° 0 mm 3 mps 741 mmHg 70%
22:00 +8°C° 0 mm 3 mps 741 mmHg 71%
23:00 +8°C° 0 mm 3 mps 741 mmHg 72%

19 April, Monday

Time Temperature Precipitation Wind Pressure Humidity
00:00 +8°C° 0 mm 3 mps 741 mmHg 72%
01:00 +7°C° 0 mm 4 mps 741 mmHg 71%
02:00 +7°C° 0 mm 4 mps 741 mmHg 71%
03:00 +6°C° 0 mm 4 mps 741 mmHg 72%
04:00 +6°C° 0 mm 4 mps 741 mmHg 74%
05:00 +7°C° 0 mm 3 mps 741 mmHg 75%
06:00 +7°C° 0 mm 4 mps 741 mmHg 72%
07:00 +8°C° 0 mm 4 mps 741 mmHg 69%
08:00 +9°C° 0 mm 5 mps 741 mmHg 66%
09:00 +10°C° 0.1 mm 5 mps 741 mmHg 65%
10:00 +10°C° 0.1 mm 5 mps 740 mmHg 63%
11:00 +11°C° 0.1 mm 6 mps 740 mmHg 62%
12:00 +10°C° 0.2 mm 6 mps 740 mmHg 68%
13:00 +9°C° 0.2 mm 5 mps 740 mmHg 74%
14:00 +8°C° 0.2 mm 5 mps 739 mmHg 80%
15:00 +8°C° 0.1 mm 6 mps 739 mmHg 82%
16:00 +8°C° 0.1 mm 6 mps 739 mmHg 84%
17:00 +7°C° 0.1 mm 6 mps 738 mmHg 85%
18:00 +7°C° 0.1 mm 6 mps 738 mmHg 87%
19:00 +7°C° 0.1 mm 6 mps 737 mmHg 89%
20:00 +7°C° 0.1 mm 6 mps 737 mmHg 90%
21:00 +7°C° 0 mm 5 mps 736 mmHg 91%
22:00 +7°C° 0 mm 5 mps 735 mmHg 92%
23:00 +8°C° 0 mm 5 mps 735 mmHg 94%

20 April, Tuesday

Time Temperature Precipitation Wind Pressure Humidity
00:00 +8°C° 1.4 mm 6 mps 734 mmHg 95%
01:00 +8°C° 1.4 mm 6 mps 733 mmHg 96%
02:00 +8°C° 1.4 mm 7 mps 732 mmHg 97%
03:00 +7°C° 2.8 mm 8 mps 731 mmHg 96%
04:00 +9°C° 2.8 mm 8 mps 730 mmHg 95%
05:00 +8°C° 2.8 mm 9 mps 729 mmHg 95%
06:00 +8°C° 1.5 mm 9 mps 728 mmHg 95%
07:00 +8°C° 1.5 mm 9 mps 727 mmHg 94%
08:00 +10°C° 1.5 mm 9 mps 727 mmHg 94%
09:00 +10°C° 2.5 mm 9 mps 726 mmHg 93%
10:00 +10°C° 2.5 mm 9 mps 726 mmHg 92%
11:00 +10°C° 2.5 mm 9 mps 726 mmHg 91%
12:00 +11°C° 0.5 mm 8 mps 726 mmHg 89%
13:00 +11°C° 0.5 mm 7 mps 725 mmHg 87%
14:00 +13°C° 0.5 mm 6 mps 725 mmHg 85%
15:00 +12°C° 1.1 mm 7 mps 725 mmHg 81%
16:00 +12°C° 1.1 mm 8 mps 726 mmHg 77%
17:00 +12°C° 1.1 mm 9 mps 726 mmHg 73%
18:00 +10°C° 0.5 mm 8 mps 726 mmHg 78%
19:00 +9°C° 0.5 mm 6 mps 727 mmHg 84%
20:00 +8°C° 0.5 mm 5 mps 728 mmHg 90%
21:00 +8°C° 0.5 mm 5 mps 728 mmHg 90%
22:00 +7°C° 0.5 mm 5 mps 728 mmHg 91%
23:00 +7°C° 0.5 mm 5 mps 728 mmHg 91%

21 April, Wednesday

Time Temperature Precipitation Wind Pressure Humidity
00:00 +7°C° 0.1 mm 5 mps 729 mmHg 91%
01:00 +7°C° 0.1 mm 5 mps 730 mmHg 90%
02:00 +7°C° 0.1 mm 6 mps 731 mmHg 89%
03:00 +5°C° 0 mm 6 mps 732 mmHg 89%
04:00 +6°C° 0 mm 5 mps 732 mmHg 88%
05:00 +6°C° 0 mm 5 mps 733 mmHg 87%
06:00 +7°C° 0 mm 6 mps 734 mmHg 82%
07:00 +7°C° 0 mm 6 mps 735 mmHg 76%
08:00 +8°C° 0 mm 6 mps 736 mmHg 71%
09:00 +9°C° 0 mm 7 mps 736 mmHg 67%
10:00 +9°C° 0 mm 7 mps 737 mmHg 64%
11:00 +10°C° 0 mm 7 mps 737 mmHg 60%
12:00 +11°C° 0 mm 7 mps 737 mmHg 58%
13:00 +11°C° 0 mm 7 mps 738 mmHg 55%
14:00 +12°C° 0 mm 7 mps 738 mmHg 53%
15:00 +13°C° 0.1 mm 6 mps 738 mmHg 56%
16:00 +11°C° 0.1 mm 6 mps 739 mmHg 59%
17:00 +12°C° 0.1 mm 5 mps 739 mmHg 61%
18:00 +11°C° 0 mm 4 mps 740 mmHg 67%
19:00 +10°C° 0 mm 4 mps 740 mmHg 73%
20:00 +8°C° 0 mm 3 mps 741 mmHg 79%
21:00 +8°C° 0 mm 3 mps 741 mmHg 81%
22:00 +8°C° 0 mm 3 mps 742 mmHg 82%
23:00 +8°C° 0 mm 3 mps 742 mmHg 84%
Show more